Retour au catalogue

STARLINK-37574

ActifCommunicationsVLEO
NORAD 69464·PAYLOAD·🇺🇸 United States

Lancé Jun 8, 2026 depuis Cape Canaveral Space Force Station

Loading…

Prochains Passages (prochaines 24 heures)

TLE

FraisSource: CelesTrak SupGP

Époque: Sep 15, 2026, 03:58 UTC

1 69464C 26127X   26258.16576389 -.00030056  00000+0 -88810-3 0  2586
2 69464  53.1574 190.8425 0001322  82.8835 164.2700 15.34402861    12

Suivez STARLINK-37574 en temps réel avec AllMySat

Download on the App Store